Regional Weather Roundup
Issued by NWS

Home | Current Version | Previous Version | Text Only | Print | Product List | Glossary On
Versions: 1 2 3 4 5 6 7 8 9 10 11 12 13 14 15 16 17 18 19 20 21 22 23 24 25 26 27 28 29 30 31 32 33 34 35 36 37 38 39 40 41 42 43 44 45 46 47 48 49 50
000
ASUS43 KMKX 291711
RWRWI

WISCONSIN REGIONAL WEATHER ROUNDUP
NATIONAL WEATHER SERVICE MILWAUKEE/SULLIVAN WI
1200 PM CDT SUN MAY 29 2016

NOTE: "FAIR" INDICATES FEW OR NO CLOUDS BELOW 12,000 FEET WITH NO
SIGNIFICANT WEATHER AND/OR OBSTRUCTIONS TO VISIBILITY.

WIZ001-002-006>008-014>016-023>028-291800-
NORTHWEST WISCONSIN

CITY           SKY/WX    TMP DP  RH WIND       PRES   REMARKS
SUPERIOR ARPT  PTSUNNY   66  56  71 W13G20    29.85R
ASHLAND        CLOUDY    68  59  73 VRB6G20   29.83S
HAYWARD        CLOUDY    64  59  83 W12       29.88S
SIREN          CLOUDY    69  57  67 W16G25    29.90S
CUMBERLAND     CLOUDY    64  59  82 W14       29.92R
RICE LAKE      CLOUDY    66  58  74 W13       29.92S
CHETEK         CLOUDY    67  59  76 W8G18     29.91S
LADYSMITH      CLOUDY    65  60  85 W10       29.91R
EAU CLAIRE     LGT RAIN  66  60  81 W13       29.92R
MENOMONIE      CLOUDY    66  65  95 W15G21    29.93R
NEW RICHMOND   PTSUNNY   68  57  68 W16       29.94S
OSCEOLA        CLOUDY    69  60  71 W12       29.96R
$$

WIZ003>005-009-010-017-018-291800-
NORTH CENTRAL WISCONSIN

CITY           SKY/WX    TMP DP  RH WIND       PRES   REMARKS
MANITOWISH WTR NOT AVBL
ARBOR VITAE    CLOUDY    63  58  83 W12       29.87R
WOODRUFF       CLOUDY    63  58  83 W12       29.87R
RHINELANDER    CLOUDY    68  58  70 W14       29.87R
EAGLE RIVER      N/A     65  57  75 W14G21    29.85R
LAND O LAKES   CLOUDY    65  60  81 W6        29.85S
PHILLIPS       CLOUDY    64  60  86 SW7       29.87S
TOMAHAWK       DRIZZLE   63  57  82 W9G17     29.89R
MEDFORD        DRIZZLE   63  61  92 W7        29.90S
MERRILL        CLOUDY    66  59  78 W13       29.89R
$$

WIZ029-030-035-036-043>047-291800-
CENTRAL WISCONSIN

CITY           SKY/WX    TMP DP  RH WIND       PRES   REMARKS
WAUSAU         CLOUDY    70  59  68 W17       29.88R
MOSINEE        CLOUDY    66  61  82 SW12      29.91R
MARSHFIELD     CLOUDY    67  58  72 W12       29.91S
STEVENS POINT  CLOUDY    66  58  74 W12G20    29.91S
WAUPACA        CLOUDY    73  62  68 W14       29.90S
WAUTOMA        LGT RAIN  69  61  75 W18G25    29.93R
WISC RAPIDS    CLOUDY    71  57  61 W14G21    29.93R
CAMP DOUGLAS   PTSUNNY   72  59  64 W16G23    29.94S
$$

WIZ011>013-019>022-031-037>040-048>050-291800-
NORTHEAST WISCONSIN

CITY           SKY/WX    TMP DP  RH WIND       PRES   REMARKS
ANTIGO         CLOUDY    66  62  86 W10       29.88S
SHAWANO        PTSUNNY   70  64  83 W7        29.88R
OCONTO         CLOUDY    71  67  88 SW8G17    29.84F
STURGEON BAY   NOT AVBL
GREEN BAY      CLOUDY    70  64  81 SW14G23   29.88S
MANITOWOC      CLOUDY    72  61  68 SW17G29   29.90S
APPLETON       PTSUNNY   68  61  77 W18       29.89R
CLINTONVILLE   CLOUDY    70  61  73 W13G18    29.88F
OSHKOSH        CLOUDY    70  62  76 W7G21     29.91S
$$

WIZ032>034-041-042-053>061-291800-
SOUTHWEST WISCONSIN

CITY           SKY/WX    TMP DP  RH WIND       PRES   REMARKS
LA CROSSE      MOSUNNY   75  60  59 W12       29.96R
SPARTA         PTSUNNY   72  60  65 W13G22    29.96R
VIROQUA        PTSUNNY   71  58  64 W14G20    29.99R
BOSCOBEL       PTSUNNY   75  59  57 W8G21     29.99R
PRAIRIE DU CHI PTSUNNY   74  56  55 W14       30.00S
PLATTEVILLE    PTSUNNY   73  61  65 W17G23    30.01F
$$

WIZ056-057-062-063-064-067-068-291800-
SOUTH CENTRAL WISCONSIN

CITY           SKY/WX    TMP DP  RH WIND       PRES   REMARKS
REEDSBURG      PTSUNNY   72  61  68 SW15G21   29.96R
BARABOO/DELLS  CLOUDY    71  56  58 SW12G21   29.96S
LONE ROCK      MOSUNNY   75  59  57 W13       29.98S
MINERAL POINT  CLOUDY    73  61  64 W16       30.01S
MADISON        PTSUNNY   73  58  59 VRB7      29.96S
MIDDLETON      PTSUNNY   73  59  62 W18G24    29.98S
WATERTOWN      PTSUNNY   72  61  68 W13G18    29.96S
MONROE         PTSUNNY   72  55  56 W20       30.00S
JANESVILLE     PTSUNNY   75  61  60 W14       29.99R
$$

WIZ051-052-058>065-066-070>072-291800-
SOUTHEAST WISCONSIN

CITY           SKY/WX    TMP DP  RH WIND       PRES   REMARKS
MILWAUKEE      PTSUNNY   73  59  61 SW16G23   29.97S
WAUKESHA       PTSUNNY   70  59  68 SW16G23   29.98S
MILWAUKEE/TIMM PTSUNNY   72  57  60 SW15G23   29.97S
RACINE         PTSUNNY   73  59  61 W15G24    29.99S
BURLINGTON     PTSUNNY   70  60  70 SW12G17   29.99S
KENOSHA        MOSUNNY   74  61  63 W18G25    29.99S
FOND DU LAC    HVY RAIN  68  60  75 W14G26    29.93R
SHEBOYGAN      PTSUNNY   73  62  68 SW21      29.92S
WEST BEND      CLOUDY    70  61  73 W12       29.95S
JUNEAU         PTSUNNY   71  60  69 SW18G24   29.96S
$$

LSZ147-162-291800-
LAKE SUPERIOR

STATION/POSITION TIME  TEMP    WIND        PRES    WAVE
                       AIR SEA DIR/SP/G            HT/PER
                 (UTC) (F)     (DEG/KT/KT) (MB)    (FT/S)
W MID LAKE BUOY  1650   43 38  200/  6/  8 1009.0S   0
DEVILS ISLAND    1700   53     240/ 20/ 23 1009.1R
PORT WING        1600   63     250/ 12/ 16 1010.2R
SAXON HARBOR     1600   65     220/  7/ 12 1009.5S
$$

LMZ867-665-643>646-291800-
LAKE MICHIGAN

STATION/POSITION TIME  TEMP    WIND        PRES    WAVE
                       AIR SEA DIR/SP/G            HT/PER
                 (UTC) (F)     (DEG/KT/KT) (MB)    (FT/S)
CHAMBERS ISLAND  1600   70     170/  9/ 15 1010.5F
N MID LAKE BUOY  1650   49 47  190/ 14/ 16 1011.2F   2/ 5
NORTHPORT PIER   1600   58     140/  8/ 12 1010.8F
SISTER BAY       1620   63     180/ 12/ 15   N/A
ALGOMA LAKESHORE 1617          220/ 12/ 13   N/A
KEWAUNEE LAKESHO 1600   53     180/ 14/ 15 1011.2F
SHEBOYGAN LAKESH 1700   70     230/ 16/ 18 1013.2F
PORT WASHINGTON  1600   73     250/ 11/ 20 1014.6R
S MID LAKE BUOY  1650   55 50  190/ 10/ 12 1015.2R   1/ 3
KENOSHA   LAKESH 1700   72     260/ 16/ 23 1015.2R
$$

TC  - TEMPERATURE IN CELSIUS
VSB - VISIBILITY IN STATUTE MILES
WCI - WIND CHILL INDEX
HX  - HEAT INDEX




USA.gov is the U.S. government's official web portal to all federal, state and local government web resources and services.